[[{"header":{"parameterUnit":"m.s-1","parameterCategory":1,"la1":30.2991,"la2":30.254,"lo1":-89.0895,"lo2":-89.0444,"dy":0.0017,"dx":0.0017,"nx":28,"ny":28,"refTime":"2024-06-26T03:00:00:Z","depth":0,"parameterNumber":2,"parameterNumberName":"U-component_of_WINDS"},"data":[0,0,0,0,0,0,0,0,0,0,0,0,0,0,0,0,0,0,0,0,0,0,0,0,0,0,0,0,0,0,0,0,0,0,0,0,0,0,0,0,0,0,0,0,0,0,0,0,0,0,0,0,0,0,0,0,0,0,2.7232,2.7233,0,2.7356,2.7357,2.7358,2.7379,2.7378,2.7377,2.7375,2.7505,2.7509,2.7514,0,0,0,0,0,0,0,0,0,0,0,0,0,2.7017,2.702,2.7231,2.7233,2.7235,2.7355,2.7357,2.7359,2.7379,2.7378,2.7376,2.7375,2.7504,2.7509,2.7514,0,0,0,0,0,0,0,0,0,0,0,0,0,2.7122,2.7022,2.7231,2.7259,2.7263,2.7355,2.7357,2.7359,2.7379,2.7378,2.7376,2.7374,2.7502,2.7508,2.7515,2.7589,0,0,2.7535,2.7538,0,0,0,0,0,0,0,0,2.7116,2.713,2.7253,2.7257,2.7262,2.735,2.7329,2.7436,2.738,2.7335,2.7375,2.7374,2.7455,2.7465,2.7492,2.7595,2.7601,2.7536,2.754,2.7543,2.7545,0,0,0,0,0,0,0,2.7109,2.7125,2.7281,2.7255,2.726,2.7267,2.728,2.7349,2.7403,2.7339,2.7341,2.7355,2.7457,2.7486,2.7496,2.7602,2.7536,2.7542,2.7546,2.7549,2.7776,2.7778,0,0,0,0,0,0,2.7096,2.7119,2.7277,2.7284,2.7183,2.7272,2.7287,2.7323,2.7402,2.7412,2.7356,2.7355,2.7475,2.7488,2.75,2.7594,2.7543,2.7549,2.7553,2.7774,2.7777,2.7779,0,0,0,0,0,0,2.7091,2.711,2.7272,2.7202,2.7223,2.7278,2.7318,2.7327,2.7355,2.7415,2.7425,2.7376,2.7474,2.7491,2.7567,2.7599,2.7552,2.7558,2.7772,2.7775,2.7778,2.7781,0,0,0,0,0,0,2.7085,2.7108,2.7135,2.7203,2.7227,2.7335,2.732,2.733,2.7367,2.7367,2.7436,2.7446,2.7474,2.7557,2.7574,2.7607,2.7564,2.7769,2.7773,2.7777,2.7779,2.7784,2.7789,0,0,0,0,0,2.7077,2.7131,2.7136,2.7155,2.7262,2.7337,2.7351,2.7382,2.7369,2.7398,2.7437,2.7444,2.7593,2.7565,2.7584,2.762,2.7767,2.7772,2.7777,2.7776,2.7783,2.7789,0,0,0,0,0,0,2.7066,2.714,2.7147,2.7224,2.7274,2.734,2.7377,2.7388,2.7443,2.7441,2.7478,2.7494,2.7569,2.7602,2.757,2.7698,2.7679,2.7688,2.7673,2.768,2.7685,2.7675,2.7569,0,0,0,0,0,2.7072,2.7126,2.7189,2.7251,2.7275,2.7322,2.7356,2.7376,2.7429,2.7451,2.7495,2.7548,2.7607,2.7645,2.7703,2.7784,2.7801,2.7818,2.7823,2.7827,2.7834,2.7883,2.7893,2.7794,2.7794,2.7794,0,0,2.7086,2.7134,2.7165,2.725,2.7291,2.7347,2.734,2.7399,2.7442,2.746,2.7536,2.757,2.7632,2.7712,2.775,2.7742,2.7866,2.7833,2.7836,2.7841,2.7889,2.7898,2.7906,2.7797,2.7797,2.7796,0,0,2.7141,2.7181,2.7238,2.728,2.7343,2.7374,2.7388,2.7453,2.7477,2.7553,2.7569,2.7622,2.7722,2.7766,2.7802,2.7877,2.7887,2.7895,2.7922,2.7969,2.7977,2.7984,2.8013,2.8022,2.7902,2.7902,2.7902,0,2.715,2.7234,2.7266,2.7326,2.7364,2.7384,2.7444,2.7483,2.7561,2.7588,2.7578,2.7707,2.775,2.7842,2.7861,2.7888,2.7907,2.7887,2.7973,2.798,2.7987,2.8015,2.8026,2.7903,2.7903,2.7903,2.7903,0,2.7244,2.7303,2.7342,2.7418,2.746,2.752,2.7563,2.7602,2.7619,2.7652,2.7732,2.7784,2.7854,2.7878,2.7894,2.7974,2.7967,2.7965,2.7947,2.7997,2.8024,2.8035,2.7904,2.7904,2.7903,2.7903,0,0,2.7293,2.7388,2.7402,2.7438,2.751,2.7557,2.7618,2.7687,2.7721,2.7775,2.783,2.7916,2.7915,2.7956,2.7978,2.8019,2.8079,2.8013,2.8015,2.8024,2.8172,2.8174,2.8186,2.8086,2.8088,2.809,2.8168,0,2.7357,2.7466,2.7499,2.7592,2.7648,2.7669,2.7724,2.7775,2.7808,2.7862,2.79,2.7961,2.7954,2.7979,2.8021,2.8063,2.8109,2.8057,2.8139,2.8141,2.8123,2.82,2.8202,2.8273,2.8178,2.818,2.8182,0,2.7446,2.7502,2.7601,2.7669,2.7694,2.7741,2.7808,2.7859,2.7919,2.7941,2.7988,2.8008,2.8076,2.8055,2.8151,2.8115,2.8151,2.8176,2.818,2.8189,2.8164,2.8213,2.8296,2.8307,2.8198,2.8197,2.8196,0,2.7474,2.7575,2.7647,2.7677,2.7758,2.7792,2.7827,2.7885,2.7925,2.7984,2.8011,2.8078,2.8114,2.8166,2.8205,2.8186,2.8299,2.828,2.832,2.832,2.8343,2.8341,2.8434,2.8364,2.8364,2.8364,2.8364,0,2.7542,2.7602,2.7662,2.7706,2.7775,2.7813,2.7881,2.7917,2.797,2.8024,2.8046,2.8097,2.8144,2.8202,2.8233,2.8309,2.8325,2.8346,2.8354,2.8345,2.8342,2.8369,2.8365,2.8367,2.8366,2.8366,2.8365,0,2.7585,2.7627,2.7708,2.7778,2.7797,2.7845,2.7906,2.7952,2.7987,2.8056,2.8074,2.813,2.8199,2.8243,2.8331,2.8352,2.8437,2.8442,2.8416,2.842,2.8458,2.8455,2.8573,2.8591,2.8507,2.8508,2.8508,0,2.7626,2.7673,2.7749,2.7787,2.7822,2.7882,2.7924,2.7964,2.8006,2.808,2.8118,2.8189,2.8247,2.8358,2.8408,2.8476,2.8484,2.8521,2.8495,2.8485,2.8487,2.8484,2.8491,2.8525,2.8526,2.8527,2.8527,0,2.7696,2.7715,2.7773,2.784,2.7889,2.7943,2.7998,2.8028,2.8078,2.8125,2.8196,2.8242,2.8333,2.8404,2.8477,2.8516,2.8531,2.8535,2.8549,2.854,2.8524,2.8535,2.8429,2.8532,2.8532,2.8531,2.8531,2.8531,2.7741,2.7785,2.7845,2.7911,2.7956,2.8007,2.8054,2.8096,2.8156,2.8232,2.8253,2.8328,2.8391,2.8491,2.8532,2.8593,2.8588,2.8606,2.8612,2.8616,2.8618,2.8514,2.8606,2.8606,2.8606,2.8606,2.8606,0,2.7813,2.7854,2.7914,2.799,2.8042,2.8051,2.8112,2.8156,2.8221,2.8278,2.8336,2.8419,2.8489,2.8545,2.8618,2.8656,2.8666,2.8674,2.8672,2.8682,2.8617,2.8599,2.8666,2.8666,2.8666,2.8666,2.8666,2.8666,2.7857,2.7932,2.7959,2.8059,2.8099,2.8173,2.8208,2.8256,2.8302,2.8394,2.8452,2.8488,2.8545,2.8623,2.8688,2.8703,2.873,2.8738,2.8754,2.8693,2.8686,2.868,2.8663,2.8743,2.8743,2.8815,2.8815,2.8816]},{"header":{"parameterUnit":"m.s-1","parameterCategory":1,"la1":30.2991,"la2":30.254,"lo1":-89.0895,"lo2":-89.0444,"dy":0.0017,"dx":0.0017,"nx":28,"ny":28,"refTime":"2024-06-26T03:00:00:Z","depth":0,"parameterNumber":3,"parameterNumberName":"V-component_of_WINDS"},"data":[0,0,0,0,0,0,0,0,0,0,0,0,0,0,0,0,0,0,0,0,0,0,0,0,0,0,0,0,0,0,0,0,0,0,0,0,0,0,0,0,0,0,0,0,0,0,0,0,0,0,0,0,0,0,0,0,0,0,-0.3018,-0.3018,0,-0.3008,-0.3008,-0.3007,-0.3082,-0.3084,-0.3086,-0.3088,-0.3071,-0.3069,-0.3066,0,0,0,0,0,0,0,0,0,0,0,0,0,-0.3099,-0.3097,-0.3018,-0.3018,-0.3018,-0.3008,-0.3007,-0.3007,-0.3082,-0.3084,-0.3087,-0.3089,-0.3072,-0.3069,-0.3066,0,0,0,0,0,0,0,0,0,0,0,0,0,-0.3074,-0.3097,-0.3018,-0.3054,-0.3057,-0.3008,-0.3007,-0.3007,-0.3081,-0.3084,-0.3088,-0.3091,-0.3073,-0.3069,-0.3066,-0.2979,0,0,-0.3055,-0.3053,0,0,0,0,0,0,0,0,-0.3075,-0.307,-0.3049,-0.3052,-0.3055,-0.305,-0.303,-0.2998,-0.308,-0.3072,-0.3088,-0.3092,-0.3061,-0.3059,-0.3049,-0.2979,-0.2978,-0.3054,-0.3052,-0.305,-0.3049,0,0,0,0,0,0,0,-0.3077,-0.3071,-0.3014,-0.3049,-0.3052,-0.3069,-0.3069,-0.3024,-0.3048,-0.3073,-0.3078,-0.3076,-0.3063,-0.3053,-0.3049,-0.2978,-0.3054,-0.3051,-0.3049,-0.3047,-0.2838,-0.2834,0,0,0,0,0,0,-0.3074,-0.3072,-0.3014,-0.3014,-0.3073,-0.3065,-0.3065,-0.3048,-0.3049,-0.3053,-0.3074,-0.308,-0.3057,-0.3054,-0.3049,-0.2949,-0.305,-0.3047,-0.3045,-0.2841,-0.2837,-0.2833,0,0,0,0,0,0,-0.3076,-0.3068,-0.3015,-0.3045,-0.3039,-0.3061,-0.3041,-0.3046,-0.3036,-0.305,-0.3054,-0.3059,-0.306,-0.3054,-0.2997,-0.295,-0.3045,-0.3042,-0.2845,-0.284,-0.2835,-0.2748,0,0,0,0,0,0,-0.3078,-0.3068,-0.3037,-0.3043,-0.3037,-0.2964,-0.3038,-0.3044,-0.303,-0.3038,-0.3037,-0.304,-0.3062,-0.3002,-0.2993,-0.2946,-0.3039,-0.2849,-0.2843,-0.2837,-0.2755,-0.2741,-0.2728,0,0,0,0,0,-0.308,-0.3011,-0.3035,-0.3027,-0.2998,-0.2961,-0.2957,-0.2986,-0.3026,-0.2994,-0.3003,-0.304,-0.2957,-0.2996,-0.2986,-0.2938,-0.2852,-0.2844,-0.2837,-0.2761,-0.2743,-0.2728,0,0,0,0,0,0,-0.2995,-0.3012,-0.3039,-0.297,-0.2964,-0.2974,-0.2934,-0.2966,-0.2946,-0.2954,-0.2989,-0.2988,-0.2925,-0.2926,-0.2969,-0.2855,-0.2911,-0.2901,-0.2857,-0.284,-0.2827,-0.2827,-0.3036,0,0,0,0,0,-0.2969,-0.2939,-0.2955,-0.2892,-0.2888,-0.2911,-0.2896,-0.2919,-0.2913,-0.291,-0.2915,-0.2907,-0.2879,-0.286,-0.2835,-0.2756,-0.2757,-0.2718,-0.2705,-0.2694,-0.2684,-0.2644,-0.2627,-0.2808,-0.2808,-0.2808,0,0,-0.2912,-0.2918,-0.2897,-0.2875,-0.2873,-0.284,-0.2908,-0.287,-0.2846,-0.2904,-0.2851,-0.2854,-0.2847,-0.2779,-0.275,-0.2778,-0.2635,-0.2684,-0.2675,-0.2672,-0.2634,-0.2617,-0.2602,-0.2803,-0.2804,-0.2805,0,0,-0.2794,-0.2796,-0.2744,-0.2742,-0.2739,-0.2756,-0.2743,-0.2749,-0.2755,-0.2703,-0.2746,-0.2717,-0.2668,-0.2662,-0.2652,-0.2535,-0.2568,-0.2525,-0.2454,-0.2414,-0.24,-0.2388,-0.2346,-0.2331,-0.2516,-0.2516,-0.2516,0,-0.2724,-0.2678,-0.2713,-0.2673,-0.2662,-0.2717,-0.2665,-0.266,-0.2648,-0.2639,-0.2671,-0.2613,-0.2612,-0.2544,-0.2516,-0.2506,-0.2493,-0.2525,-0.24,-0.2388,-0.2376,-0.2337,-0.2321,-0.2511,-0.2512,-0.2512,-0.2513,0,-0.2593,-0.256,-0.2519,-0.2509,-0.2494,-0.2448,-0.2475,-0.2455,-0.248,-0.2493,-0.244,-0.2441,-0.2418,-0.2404,-0.2426,-0.2339,-0.2357,-0.2394,-0.2451,-0.2353,-0.2317,-0.2302,-0.2504,-0.2506,-0.2507,-0.2508,0,0,-0.2418,-0.2431,-0.2415,-0.2412,-0.2415,-0.2389,-0.2346,-0.2326,-0.2308,-0.2299,-0.2263,-0.2222,-0.2257,-0.2246,-0.2269,-0.2234,-0.2142,-0.2276,-0.2276,-0.2251,-0.2047,-0.2018,-0.2,-0.2165,-0.2162,-0.216,-0.2047,0,-0.2303,-0.2231,-0.2263,-0.2187,-0.2158,-0.221,-0.2173,-0.2169,-0.2181,-0.2156,-0.2168,-0.2139,-0.2187,-0.2181,-0.2149,-0.216,-0.2101,-0.2168,-0.213,-0.2129,-0.213,-0.1981,-0.1951,-0.1845,-0.2033,-0.2031,-0.2029,0,-0.2158,-0.2146,-0.2068,-0.2078,-0.2067,-0.2032,-0.2018,-0.1994,-0.1992,-0.2003,-0.1992,-0.2023,-0.1981,-0.2039,-0.198,-0.2025,-0.2012,-0.2015,-0.2012,-0.2008,-0.2072,-0.1974,-0.1812,-0.1795,-0.2007,-0.2009,-0.201,0,-0.2039,-0.2003,-0.1952,-0.1948,-0.1958,-0.1933,-0.1935,-0.1937,-0.1923,-0.191,-0.1902,-0.1883,-0.1872,-0.1856,-0.1881,-0.1921,-0.1819,-0.1879,-0.1826,-0.1826,-0.1801,-0.1802,-0.1634,-0.1793,-0.1794,-0.1794,-0.1794,0,-0.1906,-0.1857,-0.1899,-0.1868,-0.1814,-0.1851,-0.1796,-0.1804,-0.1805,-0.1776,-0.182,-0.1791,-0.1826,-0.18,-0.182,-0.1769,-0.1763,-0.177,-0.1776,-0.1766,-0.1765,-0.1757,-0.1765,-0.179,-0.1791,-0.1792,-0.1792,0,-0.1763,-0.179,-0.1738,-0.1753,-0.1756,-0.1715,-0.1728,-0.1699,-0.1715,-0.1677,-0.167,-0.1694,-0.1666,-0.169,-0.1663,-0.1676,-0.1608,-0.1624,-0.161,-0.1614,-0.156,-0.1565,-0.138,-0.1358,-0.1531,-0.153,-0.1528,0,-0.1677,-0.164,-0.1652,-0.1637,-0.1638,-0.1612,-0.16,-0.1635,-0.162,-0.1616,-0.1588,-0.1565,-0.1548,-0.1501,-0.1515,-0.1494,-0.151,-0.1447,-0.1507,-0.1499,-0.1509,-0.1511,-0.1508,-0.1434,-0.1432,-0.1431,-0.1429,0,-0.152,-0.1536,-0.1518,-0.1504,-0.1489,-0.148,-0.1473,-0.1458,-0.1494,-0.1475,-0.1449,-0.1436,-0.141,-0.1386,-0.1371,-0.1372,-0.1406,-0.1411,-0.1398,-0.1387,-0.138,-0.1383,-0.1576,-0.1414,-0.1416,-0.1417,-0.1418,-0.1418,-0.1403,-0.1374,-0.1379,-0.1357,-0.1357,-0.1351,-0.1325,-0.1339,-0.1318,-0.1301,-0.1323,-0.1291,-0.1291,-0.1274,-0.1272,-0.1247,-0.1273,-0.1253,-0.1248,-0.1243,-0.1235,-0.1385,-0.1244,-0.1244,-0.1245,-0.1245,-0.1245,0,-0.125,-0.1256,-0.1236,-0.1228,-0.1211,-0.1247,-0.1243,-0.1226,-0.1198,-0.1196,-0.118,-0.115,-0.1128,-0.1141,-0.1122,-0.1099,-0.1114,-0.1093,-0.1094,-0.1094,-0.1213,-0.1226,-0.1081,-0.1081,-0.1081,-0.1081,-0.1081,-0.1081,-0.1168,-0.1121,-0.1137,-0.1091,-0.1097,-0.1068,-0.1062,-0.1056,-0.1056,-0.1021,-0.1004,-0.1014,-0.1018,-0.1,-0.0981,-0.0986,-0.0976,-0.0949,-0.0959,-0.1069,-0.1085,-0.1101,-0.1114,-0.0947,-0.0947,-0.0843,-0.0842,-0.0841]}]]